Tracking 35275 objects as of 8-Sep-2026
HD Live streaming from Space Station
objects crossing your sky now

ONEWEB-0625

Track ONEWEB-0625 now!
10-day predictions
ONEWEB-0625 is classified as:


NORAD ID: 55166
Int'l Code: 2023-004AC
Launch date: January 10, 2023
Source: United Kingdom (UK)
Launch site: AIR FORCE WESTERN TEST RANGE (AFWTR)
Your satellite tracking list
Your tracking list is empty




NASA's NSSDC Master Catalog

Two Line Element Set (TLE):
1 55166U 23004AC  26250.01908998  .00000007  00000-0 -14419-4 0  9992
2 55166  87.9203 349.6203 0001999  98.6638 261.4720 13.17650222178354
Source of the keplerian elements: AFSPC